Weather History for KEYW - October, 2011

Change the Weather History Date:

Tuesday, October 4, 2011

  Actual Average Record
Temperature  
Mean Temperature 80 °F 82 °F  
Max Temperature 82 °F 86 °F 91 °F (1962)
Min Temperature 78 °F 78 °F 70 °F (1929)
Degree Days  
Heating Degree Days 0 0  
Month to date heating degree days 0 0  
Since 1 July heating degree days 0 0  
Cooling Degree Days 15 17  
Month to date cooling degree days 71 68  
Year to date cooling degree days 4132 3803  
Growing Degree Days 28 (Base 50)    
Moisture  
Dew Point 72 °F    
Average Humidity 77    
Maximum Humidity 85    
Minimum Humidity 69    
Precipitation  
Precipitation 0.05 in 0.19 in 13.54 in (1933)
Month to date precipitation 1.01 0.75  
Year to date precipitation 25.97 31.13  
Snow  
Snow 0.00 in - - ()
Month to date snowfall 0.0  
Since 1 July snowfall 0.0  
Since 1 September snowfall 0.0  
Snow Depth 0.00 in    
Sea Level Pressure  
Sea Level Pressure 30.11 in    
Wind  
Wind Speed 9 mph (ENE)    
Max Wind Speed 15 mph    
Max Gust Speed 21 mph    
Visibility 10 miles    
Events Rain , Thunderstorm    
T = Trace of Precipitation, MM = Missing Value Source: NWS Daily Summary

Daily Weather History Graph

Daily Weather History Graph

Search for Another Location

Airport or City:

Trip Planner

Search our weather history database for the weather conditions in past years. The results will help you decide how hot, cold, wet, or windy it might be!

Date:

Astronomy

Oct. 04, 2011 Rise Set
Actual Time 7:20 AM EDT 7:11 PM EDT
Civil Twilight 6:57 AM EDT 7:33 PM EDT
Nautical Twilight 6:30 AM EDT 8:00 PM EDT
Astronomical Twilight 6:04 AM EDT 8:26 PM EDT
Moon 2:32 PM EDT (10/4) 12:44 AM EDT (10/4)
Length of Visible Light 12h 36m
Length of Day
11h 51m
First Quarter, 56% of the Moon is Illuminated
Oct 4
First Quarter
Oct 11
Full
Oct 19
Last Quarter
Oct 26
New
Nov 2
First Quarter

Hourly Weather History & Observations

Time (EDT) Temp. Heat Index Dew Point Humidity Pressure Visibility Wind Dir Wind Speed Gust Speed Precip Events Conditions
12:00 AM 75.2 °F - 71.6 °F 89% 30.06 in 10.0 mi SSW 16.1 mph 24.2 mph 0.00 in Rain Light Rain
12:14 AM 77.0 °F - 71.6 °F 83% 30.05 in 10.0 mi SSW 11.5 mph - 0.00 in   Overcast
12:53 AM 78.1 °F - 73.0 °F 84% 30.04 in 10.0 mi Calm Calm - 0.00 in Rain Light Rain
1:53 AM 80.1 °F 84.5 °F 73.9 °F 81% 30.30 in 10.0 mi East 3.5 mph - 0.00 in Rain Light Rain
2:53 AM 80.1 °F 85.4 °F 75.9 °F 87% 30.28 in 10.0 mi NNE 3.5 mph - 0.00 in   Mostly Cloudy
3:19 AM 80.6 °F 86.2 °F 75.2 °F 84% 30.00 in 10.0 mi ENE 6.9 mph - 0.00 in   Overcast
3:53 AM 80.1 °F 84.5 °F 73.9 °F 81% 30.26 in 10.0 mi ENE 9.2 mph - 0.00 in   Scattered Clouds
4:53 AM 80.1 °F 85.1 °F 75.0 °F 85% 30.27 in 10.0 mi ENE 10.4 mph - N/A   Clear
5:27 AM 80.6 °F 85.4 °F 73.4 °F 79% 30.00 in 10.0 mi ENE 11.5 mph - N/A Thunderstorm Thunderstorm
5:53 AM 81.0 °F 85.2 °F 72.0 °F 74% 30.28 in 10.0 mi ENE 10.4 mph - 0.00 in Rain , Thunderstorm Light Thunderstorms and Rain
6:34 AM 78.8 °F - 73.4 °F 83% 30.02 in 10.0 mi ENE 8.1 mph - 0.03 in Rain Light Rain
6:45 AM 78.8 °F - 73.4 °F 83% 30.03 in 10.0 mi NE 8.1 mph - 0.03 in Rain Light Rain
6:53 AM 78.8 °F - 73.4 °F 83% 30.03 in 10.0 mi NE 8.1 mph - N/A Rain Light Rain
6:54 AM 78.8 °F - 73.4 °F 83% 30.03 in 10.0 mi NE 9.2 mph - 0.00 in Rain Light Rain
7:53 AM 79.0 °F - 73.0 °F 82% 30.32 in 10.0 mi NE 10.4 mph 18.4 mph 0.01 in   Mostly Cloudy
8:53 AM 80.1 °F 84.5 °F 73.9 °F 81% 30.33 in 10.0 mi ENE 11.5 mph 18.4 mph N/A   Clear
9:53 AM 82.4 °F 87.2 °F 71.6 °F 70% 30.07 in 10.0 mi ENE 13.8 mph 21.9 mph N/A   Partly Cloudy
10:53 AM - - - N/A% - - North - - N/A   Unknown
11:53 AM 81.0 °F 84.9 °F 71.1 °F 72% 30.07 in 10.0 mi North - - N/A   Unknown
12:53 PM - - - N/A% 30.07 in - North - - N/A   Unknown
1:53 PM 81.0 °F 84.9 °F 71.1 °F 72% 30.05 in 10.0 mi ENE 12.7 mph 20.7 mph N/A   Unknown
2:53 PM 81.0 °F 84.4 °F 70.0 °F 69% 30.04 in 10.0 mi ENE 11.5 mph 19.6 mph 0.00 in Rain Light Rain
3:53 PM 80.1 °F 83.2 °F 70.0 °F 71% 30.02 in 10.0 mi NE 10.4 mph - 0.00 in   Overcast
4:53 PM 81.0 °F 84.9 °F 71.1 °F 72% 30.01 in 10.0 mi ENE 9.2 mph - N/A   Partly Cloudy
5:53 PM 80.6 °F 84.6 °F 71.6 °F 74% 30.02 in 10.0 mi East 8.1 mph - N/A   Scattered Clouds
6:53 PM 81.0 °F 85.2 °F 72.0 °F 74% 30.02 in 10.0 mi East 6.9 mph - N/A   Mostly Cloudy
7:53 PM 80.1 °F 83.8 °F 72.0 °F 76% 30.02 in 10.0 mi ENE 5.8 mph - N/A   Partly Cloudy
8:53 PM 80.1 °F 83.6 °F 71.1 °F 74% 30.04 in 10.0 mi ENE 5.8 mph - N/A   Clear
9:53 PM 80.1 °F 83.2 °F 70.0 °F 71% 30.05 in 10.0 mi ENE 6.9 mph - N/A   Clear
10:53 PM 80.1 °F 83.2 °F 70.0 °F 71% 30.05 in 10.0 mi ENE 11.5 mph - N/A   Clear
11:53 PM 79.0 °F - 69.1 °F 72% 30.33 in 10.0 mi NE 10.4 mph 17.3 mph N/A   Mostly Cloudy